DECAYED

COSMOS 1275 DEB, 13481 (Decayed)

Orbit data source: Space-Track

COSMOS 1275 DEB, 13481 was space debris in LEO originally from a launch on Thu, 04 Jun 1981 UTC launched from the Plesetsk Missile And Space Complex (PKMTR). Debris objects in space refer to the collection of defunct objects orbiting the Earth. Examples of debris include non-operational satellites, rocket bodies, and fragments generated from explosions, collisions, or faulty payload assembly.

Loading next visibility...
Identifier
13481, 1981-053GB
Orbit
Decayed
Country
Flag of CISCIS
Related business
Manufacturer
Unknown
Mission
Decayed spacecraft
Bus & Motor
Unknown
Mass
Unknown
Launch date (UTC)
1981-06-04 (45 years ago)
Launch vehicle
Unknown
Launch site
Plesetsk Missile And Space Complex (PKMTR)
Object type
Payload
Rocket body
Debris
Shape & HBR
Unknown shape, 0.1 m
Radar Cross Section
Medium (>0.1 m² and <1 m²)

Expand to show TLE details & history
Last TLE update: 3 weeks ago

TLE from 3 weeks ago
0 COSMOS 1275 DEB
1 13481U 81053GB  26150.84446699  .08342289  18164+0  19895-1 0  9996
2 13481  82.9268  15.3442 0011845 237.1608 122.8533 16.03287251265247
Epoch: 2026-05-30T20:16Z
TLE epoch observation values (Epoch: 2026-05-30T20:16:01.947Z)
Latitude
-0.00007°
Longitude
-177.01858°
Altitude
272.811 km
Speed
7.741 km/s
True Right ascension
01h 01m 22s
True Declination
0° 00' 00"
Sunlit
Object was in daylight at epoch
Visualization orbit readout
Latitude
Unknown
Longitude
Unknown
Altitude
Unknown
Speed
Unknown
Apparent Right ascension
Unknown
Apparent Declination
Unknown
Sunlit
N/A
Visualization observer readout
Local Sidereal Time
16:05:07
Azimuth
Unknown
Elevation
Unknown
Doppler factor
Unknown
Orbital elements
Apogee altitude
270.029 km
Perigee altitude
254.298 km
Semi-major axis
6,640.301 km
Eccentricity
0.00118
Inclination
82.9268°
RAAN
15.3442°
Arg. of periapsis
237.1608°
True anomaly
122.96723°
Mean anomaly
122.8533°
Eccentric anomaly
122.91028°
Mean motion
4.01108 °/min
Orbital period
89.75 mins
BSTAR
0.019895
Loading maneuver chart data...
Computing Atmospheric mass density...
Loading historical data...
Loading historical data...
Loading historical data...
Loading historical data...
Loading historical data...
Loading historical data...
Loading historical data...

Documentation

Showing up to 5 results
|